[[{"header":{"parameterUnit":"m.s-1","parameterCategory":2,"la1":30.2992,"la2":30.254,"lo1":-89.0895,"lo2":-89.0443,"dy":0.0025,"dx":0.0025,"nx":19,"ny":19,"refTime":"2026-05-15T21:00:00:Z","depth":"0","parameterNumber":2,"parameterNumberName":"U-component_of_CURRENTS"},"data":[0,0,0,-0.23,-0.2304,-0.2511,-0.2512,-0.2633,-0.2633,0,0,0,0,0,0,0,0,0,0,0,-0.2214,-0.2215,-0.2299,-0.2304,-0.2511,-0.2512,-0.2633,-0.2633,0,0,0,0,0,0,0,0,0,0,0,-0.2214,-0.2215,-0.2216,-0.2305,-0.2511,-0.2512,-0.2633,-0.2517,0,0,0,0,0,0,0,0,0,0,-0.2335,-0.2269,-0.2215,-0.2216,-0.2306,-0.2511,-0.2513,-0.2513,-0.2524,-0.2491,0,-0.2506,0,-0.2566,-0.2636,-0.2636,0,0,0,-0.2324,-0.226,-0.2315,-0.2216,-0.2307,-0.251,-0.2423,-0.252,-0.2532,-0.2504,-0.2509,-0.2515,-0.2568,-0.2636,-0.2636,-0.2575,-0.2574,0,0,-0.2312,-0.2257,-0.2307,-0.2322,-0.2336,-0.2416,-0.2429,-0.253,-0.2527,-0.2509,-0.2519,-0.257,-0.2637,-0.2637,-0.2576,-0.2575,0,0,0,-0.2266,-0.2248,-0.2305,-0.2315,-0.2361,-0.2422,-0.2437,-0.2524,-0.2542,-0.2521,-0.2571,-0.2637,-0.2637,-0.2577,-0.2576,-0.2606,0,0,0,-0.226,-0.2221,-0.2299,-0.2269,-0.2359,-0.2465,-0.2428,-0.2535,-0.2549,-0.2571,-0.2637,-0.2638,-0.2579,-0.2577,-0.2607,-0.2623,0,0,0,-0.2209,-0.2216,-0.2233,-0.2265,-0.2349,-0.2465,-0.2492,-0.2541,-0.2578,-0.2636,-0.2638,-0.2579,-0.2577,-0.2609,-0.2624,-0.2619,0,0,0,-0.2158,-0.2187,-0.2231,-0.2277,-0.2346,-0.2434,-0.2493,-0.2546,-0.2586,-0.2637,-0.2578,-0.2576,-0.2609,-0.2625,-0.2619,-0.2441,-0.2423,0,0,-0.2172,-0.2187,-0.2218,-0.2263,-0.2352,-0.2408,-0.2474,-0.2539,-0.2535,-0.2541,-0.2542,-0.2607,-0.2624,-0.2619,-0.2304,-0.2291,0,0,0,-0.2209,-0.2233,-0.2262,-0.2328,-0.2388,-0.2454,-0.2514,-0.2516,-0.2531,-0.2548,-0.255,-0.2558,-0.2555,-0.2447,-0.2435,-0.2385,-0.2565,-0.2565,-0.2566,-0.216,-0.2229,-0.2283,-0.2367,-0.2408,-0.2472,-0.2502,-0.2503,-0.2507,-0.2481,-0.2541,-0.2498,-0.2379,-0.2369,-0.2318,-0.249,-0.249,-0.249,-0.249,-0.218,-0.222,-0.2294,-0.2368,-0.2425,-0.2466,-0.2504,-0.2506,-0.2507,-0.25,-0.2496,-0.243,-0.2358,-0.2308,-0.2491,-0.2491,-0.2491,-0.2491,-0.2491,-0.2126,-0.2166,-0.2214,-0.2325,-0.24,-0.2469,-0.2468,-0.2525,-0.2516,-0.2523,-0.2388,-0.2385,-0.238,-0.2518,-0.2518,-0.2518,-0.2518,-0.2518,-0.2518,-0.2054,-0.212,-0.2124,-0.229,-0.2301,-0.2379,-0.2461,-0.2431,-0.2404,-0.2387,-0.2385,-0.2318,-0.2506,-0.255,-0.2518,-0.2518,-0.2518,-0.2518,-0.2518,-0.196,-0.2001,-0.199,-0.199,-0.2054,-0.1957,-0.2172,-0.2132,-0.2196,-0.2139,-0.2136,-0.2302,-0.2277,-0.2282,-0.2317,-0.2228,-0.2228,-0.2228,-0.2228,-0.1853,-0.19,-0.1759,-0.1657,-0.164,-0.1685,-0.1468,-0.1644,-0.1847,-0.1882,-0.1993,-0.1937,-0.1951,-0.1907,-0.1921,-0.1948,-0.1768,-0.1767,-0.1767,-0.1718,-0.1707,-0.1498,-0.1443,-0.1359,-0.1257,-0.0984,-0.1115,-0.1521,-0.1754,-0.1965,-0.1984,-0.1914,-0.194,-0.188,-0.1903,-0.1953,0,0]},{"header":{"parameterUnit":"m.s-1","parameterCategory":2,"la1":30.2992,"la2":30.254,"lo1":-89.0895,"lo2":-89.0443,"dy":0.0025,"dx":0.0025,"nx":19,"ny":19,"refTime":"2026-05-15T21:00:00:Z","depth":"0","parameterNumber":3,"parameterNumberName":"V-component_of_CURRENTS"},"data":[0,0,0,-0.0063,-0.0061,0.0103,0.0104,0.0354,0.0356,0,0,0,0,0,0,0,0,0,0,0,-0.0114,-0.0114,-0.0064,-0.0061,0.0103,0.0104,0.0354,0.0356,0,0,0,0,0,0,0,0,0,0,0,-0.0114,-0.0114,-0.0114,-0.0061,0.0102,0.0104,0.0354,0.023,0,0,0,0,0,0,0,0,0,0,0.007,-0.0001,-0.0114,-0.0114,-0.006,0.0102,0.0104,0.0224,0.0238,0.0278,0,0.0279,0,0.0302,0.037,0.0371,0,0,0,-0.0017,-0.0013,0.0025,-0.0114,-0.0059,0.0102,0.0041,0.0232,0.0247,0.0296,0.0282,0.0292,0.0307,0.0371,0.0372,0.04,0.0399,0,0,-0.0027,-0.0067,0.0014,0.0033,-0.0048,0.0036,0.0046,0.0241,0.0248,0.0283,0.0297,0.0311,0.0373,0.0374,0.0401,0.0399,0,0,0,-0.0082,-0.0074,-0.004,0.0023,0.0038,0.0039,0.0051,0.0241,0.0249,0.03,0.0314,0.0374,0.0376,0.0402,0.04,0.0286,0,0,0,-0.0085,-0.0109,-0.0045,-0.0065,0.0033,0.0134,0.0046,0.0236,0.0258,0.0312,0.0374,0.0378,0.0404,0.0401,0.0292,0.0251,0,0,0,-0.0116,-0.0112,-0.0104,-0.0068,-0.0018,0.0131,0.0153,0.0242,0.0265,0.0371,0.0379,0.0405,0.0402,0.0297,0.026,0.0303,0,0,0,-0.0145,-0.0173,-0.0106,-0.013,-0.002,0.0014,0.0152,0.02,0.0272,0.0375,0.0404,0.0401,0.0299,0.0265,0.0307,0.0422,0.0415,0,0,-0.0203,-0.0181,-0.0196,-0.0134,-0.0142,-0.0004,0.0004,0.0155,0.0244,0.0354,0.0355,0.029,0.0261,0.0304,0.0253,0.0251,0,0,0,-0.023,-0.0247,-0.0237,-0.0221,-0.0164,-0.0097,0.0032,0.0087,0.0178,0.0267,0.0262,0.0247,0.028,0.0355,0.0352,0.0591,0.0387,0.0387,0.0388,-0.0349,-0.0319,-0.035,-0.0308,-0.0274,-0.0166,-0.0106,-0.0009,0.0084,0.0076,0.0133,0.0056,0.0128,0.0129,0.0371,0.0104,0.0104,0.0103,0.0103,-0.0465,-0.0478,-0.0437,-0.0457,-0.0375,-0.0346,-0.0214,-0.0148,-0.0054,-0.0007,0.0032,0.0201,0.012,0.0379,0.0095,0.0097,0.0098,0.0098,0.0099,-0.0555,-0.0549,-0.0564,-0.0571,-0.0529,-0.0428,-0.0325,-0.0255,-0.0152,-0.0133,0.0049,0.0053,0.0311,-0.0085,-0.0085,-0.0085,-0.0085,-0.0085,-0.0085,-0.0617,-0.0628,-0.0651,-0.0666,-0.0605,-0.0525,-0.0382,-0.0289,-0.0151,-0.0059,-0.0056,0.0306,0.0001,0.0043,-0.0086,-0.0086,-0.0086,-0.0086,-0.0086,-0.0635,-0.0674,-0.0694,-0.0663,-0.0541,-0.0417,-0.0312,-0.012,-0.0047,0.0033,0.0362,0.0023,0.0099,0.0103,0.0148,0.0054,0.0054,0.0054,0.0054,-0.0625,-0.0664,-0.0632,-0.0547,-0.0432,-0.0316,-0.0074,0.0095,0.036,0.0524,0.0551,0.0624,0.0608,0.0719,0.0709,0.0768,0.0834,0.0836,0.0837,-0.0566,-0.0587,-0.0521,-0.0504,-0.0336,-0.0177,0.0017,0.0346,0.0736,0.0889,0.0859,0.0825,0.0951,0.0907,0.1093,0.106,0.1162,0,0]}],[{"header":{"parameterUnit":"m.s-1","parameterCategory":2,"la1":30.2992,"la2":30.254,"lo1":-89.0895,"lo2":-89.0443,"dy":0.0025,"dx":0.0025,"nx":19,"ny":19,"refTime":"2026-05-15T21:00:00:Z","depth":"2","parameterNumber":2,"parameterNumberName":"U-component_of_CURRENTS"},"data":[0,0,0,-0.2131,-0.2133,-0.227,-0.2271,-0.2336,-0.2336,0,0,0,0,0,0,0,0,0,0,0,-0.2071,-0.2072,-0.213,-0.2134,-0.227,-0.2271,-0.2336,-0.2336,0,0,0,0,0,0,0,0,0,0,0,-0.2071,-0.2072,-0.2073,-0.2134,-0.227,-0.2271,-0.2336,-0.226,0,0,0,0,0,0,0,0,0,0,-0.2141,-0.2095,-0.2072,-0.2073,-0.2135,-0.227,-0.2271,-0.2258,-0.2265,-0.2242,0,-0.2259,0,-0.2301,-0.2338,-0.2338,0,0,0,-0.2135,-0.2089,-0.2134,-0.2073,-0.2136,-0.227,-0.2209,-0.2263,-0.227,-0.2251,-0.226,-0.2264,-0.2302,-0.2338,-0.2338,-0.2331,-0.233,0,0,-0.2128,-0.2088,-0.2129,-0.2139,-0.2164,-0.2205,-0.2213,-0.2269,-0.2265,-0.2261,-0.2267,-0.2303,-0.2338,-0.2338,-0.2331,-0.2331,0,0,0,-0.2105,-0.2082,-0.2129,-0.2135,-0.2171,-0.2209,-0.2219,-0.2263,-0.2281,-0.2268,-0.2304,-0.2338,-0.2338,-0.2331,-0.2331,-0.2366,0,0,0,-0.21,-0.207,-0.2125,-0.2102,-0.217,-0.2232,-0.2211,-0.2277,-0.2285,-0.2304,-0.2338,-0.2339,-0.2331,-0.2331,-0.2365,-0.2378,0,0,0,-0.2067,-0.2067,-0.2082,-0.21,-0.2162,-0.2233,-0.2255,-0.228,-0.2306,-0.2338,-0.2339,-0.2332,-0.2331,-0.2365,-0.2377,-0.2373,0,0,0,-0.2022,-0.2049,-0.2081,-0.2123,-0.216,-0.2237,-0.2255,-0.23,-0.2324,-0.2338,-0.2331,-0.2331,-0.2365,-0.2376,-0.2373,-0.2198,-0.2185,0,0,-0.2035,-0.2049,-0.2078,-0.2111,-0.219,-0.2218,-0.2278,-0.2311,-0.2303,-0.2306,-0.2308,-0.2365,-0.2377,-0.2373,-0.2161,-0.2149,0,0,0,-0.207,-0.2092,-0.2119,-0.2175,-0.2228,-0.2279,-0.2315,-0.2316,-0.2329,-0.2317,-0.2342,-0.2348,-0.2345,-0.2237,-0.2228,-0.2328,-0.2328,-0.2328,-0.2328,-0.2027,-0.2089,-0.2141,-0.2218,-0.2258,-0.2315,-0.2338,-0.234,-0.2335,-0.2329,-0.236,-0.2357,-0.2241,-0.2232,-0.2341,-0.2341,-0.2341,-0.2341,-0.2341,-0.2046,-0.2068,-0.2155,-0.2225,-0.2282,-0.2324,-0.2366,-0.2367,-0.2373,-0.2362,-0.2357,-0.2258,-0.2224,-0.2344,-0.2343,-0.2343,-0.2343,-0.2342,-0.2342,-0.2,-0.2016,-0.2084,-0.2181,-0.2259,-0.2327,-0.2363,-0.2399,-0.2391,-0.24,-0.2262,-0.2258,-0.2385,-0.2394,-0.2394,-0.2394,-0.2394,-0.2394,-0.2394,-0.1891,-0.1969,-0.1983,-0.2135,-0.2174,-0.2276,-0.2359,-0.235,-0.2301,-0.2272,-0.227,-0.2374,-0.2372,-0.2386,-0.2395,-0.2395,-0.2395,-0.2395,-0.2394,-0.1786,-0.1807,-0.1834,-0.1876,-0.2016,-0.2093,-0.2248,-0.2184,-0.217,-0.2093,-0.2186,-0.2191,-0.2159,-0.2164,-0.2171,-0.2124,-0.2124,-0.2124,-0.2124,-0.1635,-0.1687,-0.1622,-0.1661,-0.1783,-0.1964,-0.1918,-0.1904,-0.1894,-0.1872,-0.1884,-0.1828,-0.1843,-0.1793,-0.1805,-0.1805,-0.1663,-0.1662,-0.1662,-0.1494,-0.1522,-0.1426,-0.1524,-0.1651,-0.1795,-0.1736,-0.1573,-0.1461,-0.1649,-0.1861,-0.2082,-0.2028,-0.2042,-0.1986,-0.1998,-0.2007,0,0]},{"header":{"parameterUnit":"m.s-1","parameterCategory":2,"la1":30.2992,"la2":30.254,"lo1":-89.0895,"lo2":-89.0443,"dy":0.0025,"dx":0.0025,"nx":19,"ny":19,"refTime":"2026-05-15T21:00:00:Z","depth":"2","parameterNumber":3,"parameterNumberName":"V-component_of_CURRENTS"},"data":[0,0,0,-0.0154,-0.0152,-0.0058,-0.0057,0.0086,0.0087,0,0,0,0,0,0,0,0,0,0,0,-0.0188,-0.0188,-0.0154,-0.0152,-0.0058,-0.0057,0.0086,0.0087,0,0,0,0,0,0,0,0,0,0,0,-0.0189,-0.0188,-0.0188,-0.0152,-0.0058,-0.0057,0.0085,0.0013,0,0,0,0,0,0,0,0,0,0,-0.008,-0.0128,-0.0188,-0.0188,-0.0151,-0.0058,-0.0057,0.0009,0.0017,0.0044,0,0.0046,0,0.0064,0.0095,0.0096,0,0,0,-0.0135,-0.0135,-0.0106,-0.0188,-0.0151,-0.0058,-0.0096,0.0014,0.0023,0.0055,0.0048,0.0054,0.0067,0.0096,0.0097,0.0166,0.0166,0,0,-0.0141,-0.0169,-0.0112,-0.0101,-0.0141,-0.0099,-0.0093,0.0019,0.002,0.0049,0.0057,0.0069,0.0097,0.0098,0.0166,0.0166,0,0,0,-0.0167,-0.0173,-0.0146,-0.0107,-0.0094,-0.0096,-0.009,0.0016,0.0025,0.0059,0.0071,0.0098,0.0099,0.0166,0.0166,0.0076,0,0,0,-0.0169,-0.0189,-0.0149,-0.0165,-0.0097,-0.0043,-0.0096,0.0017,0.003,0.007,0.0098,0.0101,0.0166,0.0166,0.0079,0.0039,0,0,0,-0.019,-0.0191,-0.0184,-0.0167,-0.0132,-0.0045,-0.0028,0.0021,0.0037,0.0096,0.0101,0.0167,0.0166,0.0081,0.0044,0.008,0,0,0,-0.0215,-0.0241,-0.0185,-0.0208,-0.0134,-0.0106,-0.0028,0.0003,0.0044,0.0099,0.0166,0.0166,0.0082,0.0047,0.0081,0.0156,0.0154,0,0,-0.0268,-0.0248,-0.0262,-0.0211,-0.0216,-0.0117,-0.0105,-0.0018,0.0051,0.0135,0.0137,0.0078,0.0044,0.008,0.0128,0.0127,0,0,0,-0.0292,-0.0307,-0.0298,-0.0284,-0.0233,-0.0179,-0.0091,-0.0042,0.0034,0.0071,0.0094,0.0076,0.0101,0.015,0.0149,0.0164,0.0164,0.0164,0.0164,-0.0401,-0.0371,-0.0397,-0.0353,-0.032,-0.022,-0.0169,-0.0079,-0.0016,0.0002,0.0013,-0.0007,0.0042,0.0043,0.0029,0.0028,0.0028,0.0028,0.0027,-0.0508,-0.0536,-0.0473,-0.049,-0.0405,-0.0371,-0.0235,-0.0176,-0.0083,-0.0047,-0.0017,0.0066,0.0036,0.0021,0.0022,0.0023,0.0024,0.0024,0.0024,-0.0597,-0.0611,-0.0602,-0.061,-0.0563,-0.0459,-0.0377,-0.0279,-0.0164,-0.0143,-0.0015,-0.0012,-0.0041,-0.0108,-0.0108,-0.0108,-0.0108,-0.0108,-0.0108,-0.071,-0.07,-0.076,-0.0726,-0.0746,-0.067,-0.0462,-0.0361,-0.0193,-0.0096,-0.0094,-0.0051,-0.0047,-0.0046,-0.0109,-0.0109,-0.0108,-0.0108,-0.0108,-0.0894,-0.0848,-0.0949,-0.0991,-0.0992,-0.0961,-0.0684,-0.0333,-0.0182,-0.0079,-0.0035,-0.0037,0.0016,0.0019,0.0024,-0.0017,-0.0017,-0.0017,-0.0017,-0.1018,-0.0999,-0.1134,-0.1225,-0.1257,-0.1114,-0.0861,-0.0399,-0.0061,0.003,0.0027,0.0049,0.0045,0.0102,0.0103,0.011,0.0091,0.0091,0.0091,-0.118,-0.1172,-0.1302,-0.1319,-0.1395,-0.1273,-0.1018,-0.0459,-0.0026,0.0091,0.0001,-0.0001,0.0027,0.0022,0.0109,0.011,0.0122,0,0]}],[{"header":{"parameterUnit":"m.s-1","parameterCategory":2,"la1":30.2992,"la2":30.254,"lo1":-89.0895,"lo2":-89.0443,"dy":0.0025,"dx":0.0025,"nx":19,"ny":19,"refTime":"2026-05-15T21:00:00:Z","depth":"4","parameterNumber":2,"parameterNumberName":"U-component_of_CURRENTS"},"data":[0,0,0,-0.1657,-0.166,-0.1766,-0.1766,-0.1796,-0.1796,0,0,0,0,0,0,0,0,0,0,0,-0.1613,-0.1614,-0.1657,-0.1661,-0.1766,-0.1766,-0.1795,-0.1796,0,0,0,0,0,0,0,0,0,0,0,-0.1612,-0.1613,-0.1615,-0.1661,-0.1766,-0.1766,-0.1795,-0.1735,0,0,0,0,0,0,0,0,0,0,-0.1643,-0.1621,-0.1613,-0.1615,-0.1662,-0.1766,-0.1766,-0.1733,-0.1739,-0.1726,0,-0.1764,0,-0.1796,-0.1798,-0.1798,0,0,0,-0.1633,-0.1616,-0.1659,-0.1615,-0.1663,-0.1766,-0.171,-0.1737,-0.1743,-0.1734,-0.1765,-0.1767,-0.1796,-0.1798,-0.1798,-0.1904,-0.1905,0,0,-0.1627,-0.1611,-0.1655,-0.1664,-0.1717,-0.1707,-0.1714,-0.1742,-0.1749,-0.1765,-0.1768,-0.1797,-0.1798,-0.1799,-0.1903,-0.1905,0,0,0,-0.1629,-0.1607,-0.165,-0.1661,-0.1698,-0.1711,-0.1719,-0.1747,-0.1767,-0.1769,-0.1797,-0.1799,-0.1799,-0.1902,-0.1904,-0.1939,0,0,0,-0.1624,-0.1611,-0.1648,-0.1636,-0.1699,-0.1738,-0.1723,-0.1764,-0.1769,-0.1797,-0.1799,-0.1799,-0.1901,-0.1903,-0.1935,-0.1938,0,0,0,-0.1603,-0.1608,-0.1631,-0.1635,-0.1697,-0.1739,-0.1758,-0.1766,-0.1787,-0.1798,-0.1799,-0.1901,-0.1903,-0.1933,-0.1934,-0.1943,0,0,0,-0.1565,-0.1598,-0.1631,-0.1681,-0.1696,-0.1784,-0.1759,-0.1818,-0.1836,-0.1799,-0.1902,-0.1904,-0.1932,-0.1932,-0.1941,-0.1693,0,0,0,-0.1579,-0.16,-0.163,-0.1663,-0.1748,-0.1766,-0.1842,-0.1858,-0.1861,-0.1877,-0.1881,-0.1936,-0.1934,-0.1942,-0.1825,0,0,0,0,-0.1616,-0.1644,-0.1675,-0.1738,-0.1804,-0.1859,-0.1894,-0.191,-0.1949,-0.189,-0.1972,-0.1969,-0.1973,-0.1825,-0.1914,-0.1914,-0.1914,-0.1914,-0.1913,-0.1589,-0.1646,-0.1707,-0.1788,-0.1849,-0.1932,-0.1968,-0.2,-0.1998,-0.2036,-0.2024,-0.209,-0.1939,-0.2061,-0.2061,-0.2061,-0.2062,-0.2062,-0.2062,-0.1604,-0.1623,-0.1729,-0.1809,-0.1892,-0.1966,-0.2042,-0.2059,-0.2101,-0.2093,-0.2095,-0.1906,-0.2066,-0.2065,-0.2065,-0.2064,-0.2064,-0.2063,-0.2063,-0.1563,-0.157,-0.1664,-0.1773,-0.1882,-0.198,-0.2039,-0.2107,-0.213,-0.2147,-0.1979,-0.2111,-0.2075,-0.2151,-0.2152,-0.2152,-0.2152,-0.2152,-0.2152,-0.1438,-0.1531,-0.157,-0.1725,-0.1777,-0.1887,-0.2037,-0.2056,-0.2114,-0.1991,-0.2158,-0.2119,-0.2117,-0.2082,-0.2153,-0.2153,-0.2153,-0.2153,-0.2152,-0.1302,-0.1363,-0.1404,-0.1461,-0.1593,-0.1683,-0.1883,-0.1916,-0.1911,-0.1841,-0.1898,-0.191,-0.1866,-0.1869,-0.1823,-0.1821,-0.1818,-0.1815,0,-0.1155,-0.1212,-0.1212,-0.1258,-0.1317,-0.1529,-0.1513,-0.1613,-0.1674,-0.1614,-0.1865,-0.1927,-0.1935,-0.1884,-0.1882,-0.1826,0,0,0,-0.1013,-0.106,-0.1012,-0.1133,-0.1182,-0.1318,-0.1507,-0.1477,-0.1681,-0.1633,-0.174,-0.176,-0.2006,-0.2157,-0.2118,-0.2115,-0.2056,0,0]},{"header":{"parameterUnit":"m.s-1","parameterCategory":2,"la1":30.2992,"la2":30.254,"lo1":-89.0895,"lo2":-89.0443,"dy":0.0025,"dx":0.0025,"nx":19,"ny":19,"refTime":"2026-05-15T21:00:00:Z","depth":"4","parameterNumber":3,"parameterNumberName":"V-component_of_CURRENTS"},"data":[0,0,0,-0.0161,-0.016,-0.0145,-0.0145,-0.012,-0.012,0,0,0,0,0,0,0,0,0,0,0,-0.0174,-0.0174,-0.0161,-0.016,-0.0145,-0.0145,-0.012,-0.012,0,0,0,0,0,0,0,0,0,0,0,-0.0174,-0.0174,-0.0174,-0.016,-0.0145,-0.0145,-0.012,-0.0135,0,0,0,0,0,0,0,0,0,0,-0.0151,-0.0169,-0.0174,-0.0174,-0.016,-0.0145,-0.0145,-0.0135,-0.0134,-0.0123,0,-0.0123,0,-0.0114,-0.0117,-0.0117,0,0,0,-0.0167,-0.0171,-0.0156,-0.0174,-0.016,-0.0145,-0.0154,-0.0135,-0.0133,-0.0121,-0.0122,-0.0121,-0.0113,-0.0117,-0.0117,-0.0013,-0.0012,0,0,-0.0167,-0.0181,-0.0158,-0.0155,-0.0158,-0.0154,-0.0153,-0.0133,-0.0138,-0.0122,-0.012,-0.0113,-0.0117,-0.0117,-0.0013,-0.0012,0,0,0,-0.0166,-0.0182,-0.0168,-0.0156,-0.015,-0.0154,-0.0153,-0.0139,-0.0132,-0.012,-0.0112,-0.0117,-0.0116,-0.0014,-0.0013,-0.0071,0,0,0,-0.0166,-0.0179,-0.0168,-0.0177,-0.0151,-0.0147,-0.0159,-0.0134,-0.0131,-0.0113,-0.0117,-0.0116,-0.0015,-0.0014,-0.0072,-0.0108,0,0,0,-0.0175,-0.018,-0.0177,-0.0178,-0.0166,-0.0147,-0.0139,-0.0133,-0.0126,-0.0117,-0.0116,-0.0016,-0.0014,-0.0072,-0.0107,-0.0083,0,0,0,-0.0191,-0.0211,-0.0178,-0.0197,-0.0166,-0.015,-0.0139,-0.0129,-0.0122,-0.0116,-0.0015,-0.0013,-0.0072,-0.0107,-0.0084,-0.0155,0,0,0,-0.0229,-0.0216,-0.0227,-0.0197,-0.02,-0.0153,-0.0138,-0.0123,-0.008,-0.0025,-0.0023,-0.0072,-0.0107,-0.0084,-0.003,0,0,0,0,-0.0247,-0.0257,-0.0251,-0.0244,-0.0211,-0.0176,-0.0139,-0.0102,-0.0046,-0.0064,-0.0012,-0.0032,-0.0016,-0.0054,-0.0003,-0.0003,-0.0003,-0.0004,-0.0004,-0.0325,-0.0302,-0.0321,-0.0285,-0.0259,-0.0185,-0.0147,-0.0074,-0.0047,-0.0005,-0.0036,0.0001,-0.0036,0.0023,0.0022,0.0022,0.0022,0.0022,0.0022,-0.0404,-0.0423,-0.0373,-0.0388,-0.0317,-0.0287,-0.0161,-0.0117,-0.0033,-0.0012,0.0006,-0.0058,0.0017,0.0018,0.0019,0.0019,0.002,0.002,0.002,-0.0472,-0.048,-0.0482,-0.0493,-0.0456,-0.0367,-0.0313,-0.0204,-0.009,-0.0068,-0.0071,-0.0016,-0.0061,-0.0052,-0.0052,-0.0052,-0.0052,-0.0052,-0.0052,-0.0556,-0.0551,-0.0614,-0.0604,-0.0624,-0.0581,-0.0411,-0.0321,-0.0176,-0.0131,-0.008,-0.0023,-0.002,-0.0061,-0.0053,-0.0053,-0.0053,-0.0053,-0.0053,-0.0662,-0.0667,-0.0756,-0.0804,-0.0836,-0.0788,-0.0634,-0.0376,-0.0288,-0.0188,-0.0141,-0.0136,-0.0118,-0.0112,-0.0157,-0.0177,-0.0178,-0.0179,0,-0.0747,-0.075,-0.0879,-0.0965,-0.1007,-0.0904,-0.0773,-0.0586,-0.0354,-0.0383,-0.0314,-0.0275,-0.0266,-0.0259,-0.0255,-0.0316,0,0,0,-0.0836,-0.085,-0.0955,-0.1012,-0.1069,-0.0878,-0.0721,-0.062,-0.0431,-0.0258,-0.0201,-0.0195,-0.0132,-0.0055,-0.0014,-0.0011,-0.0075,0,0]}]]